COSMOS 2461 (735)

Last updated on June 23, 2019, 3:41 a.m. UTC

1 36401U 10007B   19173.79379659 -.00000066  00000-0  10000-3 0  9995
2 36401  65.7518  39.9390 0008513  63.3634 244.7406  2.13102201 72449
UTC
Height (km)
Latitude
Longitude
Inclination
Orbital Period
UTC large
Height (km)
Speed (km/s)
/
Latitude / Longitude
Inclination (degrees)
Orbital Period (minutes)
Azimuth
Elevation
Range (km)
Doppler Factor
iOS Compass Heading
iOS Angle

Next 30 passes for location: Hong Kong

Rise time Rise Azimuth (degrees) Set time Set Azimuth (degrees) Duration Max altitude (degrees)

No matching passes for this satellites